Location: *
(37.4917°N, 71.5558°E)
Time: 00:28:11
(UTC+00:00)

MSX - Pass Details

Date: 09 April 2020
Orbit: 895 x 905 km, 98.8° (Epoch: 05 June)

Event Time Altitude Azimuth Distance (km) Brightness Sun altitude
Rises 23:21:00 0° 8° (N) 3,534 7.4 -16.9°
Reaches altitude 10° 23:23:27 10° 4° (N) 2,591 6.6 -16.4°
Maximum altitude 23:29:04 55° 288° (WNW) 1,082 4.0 -15.4°
Enters shadow 23:33:46 15° 215° (SW) 2,246 5.4 -14.5°
